STARLINK-30072, 57501

Orbit data source: Space-Track

STARLINK-30072, 57501 is a payload satellite owned by SpaceX/Seattle (US) in LEO that was launched on Mon, 07 Aug 2023 UTC via an FALCON 9 launch vehicle from the Air Force Eastern Test Range (AFETR). Payload-class satellites include a variety of spacecraft equipped with specific instruments for various scientific and technological missions. These include communications satellites like Starlink; space stations such as the ISS; scientific satellites like the Hubble; Earth observation satellites from companies like Planet Labs, Umbra, and HawkEye 360; GPS; miniature CubeSats for education and research; and military/defense satellites.

Loading next visibility...
Identifier
57501, 2023-113G
Orbit
LEO
Country
Flag of USUS
Related business
Manufacturer
SpaceX/Seattle
Mission
Operational Commercial Communications
Bus & Motor
STARLINK V2M, Unknown motor
Mass
730 kg wet, ~700 kg dry
Launch date (UTC)
2023-08-07 (3 years ago)
Launch vehicle
FALCON 9
Launch site
Air Force Eastern Test Range (AFETR)
Object type
Payload
Rocket body
Debris
Shape & HBR
Box + 2 Pan, 17.7 m
Radar Cross Section
33.884 m², Large (>1 m²)

Expand to show TLE details & history
Last TLE update: 2 days ago

TLE from 2 days ago
0 STARLINK-30072
1 57501U 23113G   26171.22713282  .00000695  00000-0  34762-4 0  9998
2 57501  43.0021 157.2619 0001367 265.4003  94.6693 15.27581160159242
Epoch: 2026-06-20T05:27Z
TLE epoch observation values (Epoch: 2026-06-20T05:27:04.275Z)
Latitude
0.00001°
Longitude
167.04931°
Altitude
482.898 km
Speed
7.626 km/s
True Right ascension
10h 29m 02s
True Declination
0° 00' 00"
Sunlit
Object was in daylight at epoch
Visualization orbit readout
Latitude
Unknown
Longitude
Unknown
Altitude
Unknown
Speed
Unknown
Apparent Right ascension
Unknown
Apparent Declination
Unknown
Sunlit
N/A
Visualization observer readout
Local Sidereal Time
21:25:23
Azimuth
Unknown
Elevation
Unknown
Doppler factor
Unknown
Orbital elements
Apogee altitude
485.929 km
Perigee altitude
484.052 km
Semi-major axis
6,863.127 km
Eccentricity
0.00014
Inclination
43.0021°
RAAN
157.2619°
Arg. of periapsis
265.4003°
True anomaly
94.68491°
Mean anomaly
94.6693°
Eccentric anomaly
94.67711°
Mean motion
3.81733 °/min
Orbital period
94.31 mins
BSTAR
0.000034762
Loading maneuver chart data...
Computing Atmospheric mass density...
Loading historical data...
Loading historical data...
Loading historical data...
Loading historical data...
Loading historical data...
Loading historical data...
Loading historical data...

Documentation

Showing up to 5 results
|